Simultaneous Nadir Overpasses (SNOs) Predictions

Prediction of SNOs near equator between AQUA and NPP Satellite Orbit:

Table of predicted SNOs near equator for the next 14.0 days since TLE Epoch: 5/2/2015
Index Date (AQUA) Time (AQUA) AQUA Lat,Lon Date (NPP) Time (NPP) NPP Lat,Lon Distance(km) Time Diff (sec)
1 05/03/2015 06:21:48 30.00, 103.90 05/03/2015 06:12:46 30.10, 104.30 40.05 542
2 05/03/2015 07:11:10 -29.95, -88.43 05/03/2015 07:03:25 -29.97, -88.34 9.48 465
3 05/03/2015 07:55:53 12.63, 83.28 05/03/2015 07:49:18 12.63, 83.27 1.24 395
4 05/03/2015 08:38:56 10.27,-104.16 05/03/2015 08:33:29 10.28,-104.24 9.43 327
5 05/03/2015 09:27:12 -14.80, 64.46 05/03/2015 09:23:00 -14.86, 64.11 37.88 252
6 05/03/2015 10:15:18 19.39,-126.85 05/03/2015 10:12:22 19.49,-127.46 65.05 176
7 05/03/2015 11:03:34 -23.90, 41.84 05/03/2015 11:01:53 -24.05, 40.97 89.63 101
8 05/05/2015 21:48:44 -29.97, 52.16 05/05/2015 21:38:52 -30.10, 52.76 59.30 592
9 05/05/2015 22:38:14 29.97,-140.21 05/05/2015 22:29:39 30.00,-139.92 28.79 515
10 05/05/2015 23:27:12 -28.47, 27.83 05/05/2015 23:19:54 -28.47, 27.83 0.04 438
11 05/06/2015 00:08:45 -0.34,-158.06 05/06/2015 00:02:32 -0.34,-158.05 1.27 373
12 05/06/2015 00:54:56 11.88, 12.07 05/06/2015 00:49:56 11.90, 11.89 20.30 300
13 05/06/2015 01:43:11 -16.46,-179.29 05/06/2015 01:39:26 -16.54,-179.73 48.22 225
14 05/06/2015 02:31:18 20.99, -10.59 05/06/2015 02:28:49 21.12, -11.30 74.69 149
15 05/06/2015 03:19:33 -25.55, 158.12 05/06/2015 03:18:19 -25.73, 157.16 98.21 74
16 05/08/2015 14:05:11 -29.96, 168.05 05/08/2015 13:55:47 -30.07, 168.53 47.80 564
17 05/08/2015 14:54:41 29.96, -24.33 05/08/2015 14:46:35 30.03, -24.16 17.40 486
18 05/08/2015 15:40:59 -18.84, 146.03 05/08/2015 15:34:05 -18.84, 146.03 0.13 414
19 05/08/2015 16:23:03 -8.13, -40.51 05/08/2015 16:17:15 -8.13, -40.54 3.18 348
20 05/08/2015 17:10:56 13.52, 128.32 05/08/2015 17:06:23 13.58, 128.04 31.10 273
21 05/08/2015 17:59:11 -18.09, -63.04 05/08/2015 17:55:53 -18.22, -63.57 58.50 198
22 05/08/2015 18:47:18 22.63, 105.67 05/08/2015 18:45:16 22.79, 104.87 84.04 122
23 05/11/2015 06:21:38 -29.98, -76.08 05/11/2015 06:12:42 -30.04, -75.70 36.18 536
24 05/11/2015 07:11:08 29.99, 91.55 05/11/2015 07:03:30 30.00, 91.60 5.35 458
25 05/11/2015 07:54:31 -8.31, -95.76 05/11/2015 07:48:01 -8.31, -95.76 0.63 390
26 05/11/2015 08:38:48 -10.64, 75.91 05/11/2015 08:33:27 -10.68, 75.80 13.35 321
27 05/11/2015 09:26:55 15.19,-115.43 05/11/2015 09:22:50 15.25,-115.81 41.96 245
28 05/11/2015 10:15:10 -19.75, 53.23 05/11/2015 10:12:20 -19.89, 52.59 68.62 170
29 05/11/2015 11:03:17 24.29,-138.04 05/11/2015 11:01:43 24.46,-138.95 93.23 94
30 05/13/2015 21:48:41 29.98,-127.84 05/13/2015 21:38:57 30.09,-127.29 54.75 584
31 05/13/2015 22:38:04 -29.97, 39.81 05/13/2015 22:29:37 -30.02, 40.06 24.30 507
32 05/13/2015 23:26:20 25.53,-151.44 05/13/2015 23:19:09 25.53,-151.45 1.00 431
33 05/14/2015 00:07:49 3.05, 22.55 05/14/2015 00:01:43 3.05, 22.54 0.89 366
34 05/14/2015 00:54:46 -12.34,-167.83 05/14/2015 00:49:53 -12.41,-168.05 24.69 293
35 05/14/2015 01:42:53 16.88, 0.84 05/14/2015 01:39:16 16.98, 0.35 52.63 217
36 05/14/2015 02:31:08 -21.44, 169.51 05/14/2015 02:28:46 -21.61, 168.77 78.53 142




NCC Satellite Simultaneous Nadir Overpasses (SNOs) Prediction Service
